Location: Las Navas
(40.6024°N, 4.3345°W)
Time: 09:33:33
(UTC+00:00)

DMSP B5D2-2 - Pass Details

Date: 03 April 2020
Orbit: 791 x 805 km, 98.3° (Epoch: 29 May)

Event Time Altitude Azimuth Distance (km) Brightness Sun altitude
Rises 20:04:35 0° 18° (NNE) 3,299 7.3 -15.5°
Reaches altitude 10° 20:06:59 10° 23° (NNE) 2,366 6.5 -15.9°
Maximum altitude 20:12:05 52° 100° (E) 984 4.2 -16.8°
Drops below altitude 10° 20:17:09 10° 176° (S) 2,358 6.3 -17.7°
Sets 20:19:32 0° 181° (S) 3,285 7.0 -18.1°
